Torna al catalogo

QIANFAN-181

AttivoComunicazioniPO
NORAD 69398·PAYLOAD·🇨🇳 China

Lanciato Jun 4, 2026 da Taiyuan Satellite Launch Center

Loading…

Prossimi Passaggi (prossime 24 ore)

TLE

AggiornatoSource: Space-Track

Epoca: Sep 14, 2026, 13:34 UTC

1 69398U 26124S   26257.56529239  .00000132  00000-0  18653-3 0  9995
2 69398  89.0075 352.6451 0002148 106.5513 253.5875 13.51022906 14096

Traccia QIANFAN-181 in tempo reale con AllMySat

Download on the App Store